Simultaneous Nadir Overpasses (SNOs) Predictions

Prediction of SNOs between AQUA and NOAA-19 Satellite Orbit:

Table of predicted SNOs for the next 14.0 days since TLE Epoch: 3/30/2017
Index Date (AQUA) Time (AQUA) Lat,Lon (AQUA) SZA (AQUA ) Date (NOAA-19) Time (NOAA-19) Lat,Lon (NOAA-19) SZA (NOAA-19 ) Distance(km) Time Diff (sec)
1 03/31/2017 23:42:22 80.95, 144.21 78.66 03/31/2017 23:41:39 80.95, 144.29 78.68 1.51 43
2 04/01/2017 00:31:49 -80.95, -48.21 101.35 04/01/2017 00:32:36 -80.95, -48.31 101.36 1.75 47
3 04/03/2017 05:16:03 -80.95,-119.16 102.22 04/03/2017 05:15:28 -80.96,-119.25 102.19 1.87 35
4 04/03/2017 06:05:29 80.94, 48.52 77.76 04/03/2017 06:06:30 80.95, 48.66 77.73 2.66 61
5 04/05/2017 10:49:44 80.97, -22.87 76.97 04/05/2017 10:49:23 80.96, -22.89 76.97 1.24 21
6 04/05/2017 11:39:10 -80.94, 145.09 103.10 04/05/2017 11:40:20 -80.95, 144.91 103.11 3.40 70
7 04/07/2017 16:23:24 -80.95, 74.00 103.94 04/07/2017 16:23:12 -80.96, 73.91 103.91 2.00 12
8 04/09/2017 21:57:04 80.95, 170.49 75.24 04/09/2017 21:57:05 80.96, 170.50 75.24 0.41 1




NCC Satellite Simultaneous Nadir Overpasses (SNOs) Prediction Service
